Location: *
(31.2983°S, 151.4094°E)
Time: 01:21:54
(UTC+00:00)

PSLV R/B - Pass Details

Date: 25 August 2019
Orbit: 567 x 600 km, 98.1° (Epoch: 20 September)

Event Time Altitude Azimuth Distance (km) Brightness Sun altitude
Rises 18:32:21 0° 169° (S) 2,840 7.6 -23.4°
Reaches altitude 10° 18:34:32 10° 170° (S) 1,937 6.7 -23.0°
Maximum altitude 18:38:44 82° 257° (WSW) 608 3.8 -22.1°
Enters shadow 18:40:40 32° 341° (NNW) 1,039 5.0 -21.6°
